YUNYAO-1 46

导读

YUNYAO-1 46,即云遥一号46星,是中国云遥气象星座的成员卫星。北京时间2025年3月21日,它与云遥一号43-45、47-48星一同,在酒泉卫星发射中心由谷神星一号运载火箭发射升空,顺利进入预定轨道。该星搭载GNSS掩星探测载荷,可获取大气层温湿度、压力及电离层电子密度信息,服务气象观测研究,此次任务是谷神星一号运载火箭第19次飞行。

Basic Information
目录编号:
63347
目录名称:
YUNYAO-1 46
国际标识:
2025-059D
轨道中心:
EARTH
卫星名称:
YUNYAO-1 46
卫星全名:
YUNYAO-1 46
卫星状态:
在轨 (已飞行538 天)
发射日期:
2025-03-21 UTC
国别 :
中国 (CN)
星等 :
--
Orbit Information
数据来源 国际轨道数据
星历时间: 2026-09-10T12:27:33+0800
6小时前
查看轨道信息
半长轴: 6910.244km
偏心率: 0.0010879
轨道倾角: 97.615°
近地点辐角 206.712°
升交点赤经 74.184°
平近点角 153.355°
近地点: 524.589km
远地点: 539.625km
周期: 95.280分钟
每日圈数: 15.113421
Detailed Information
使用方式:
暂无
2D Orbit Map
3D Orbit Map
Orbit Altitude Analysis Chart
Orbit Inclination Analysis Chart
Orbit Comprehensive Analysis Chart
View Comprehensive Chart
Conjunction Data List
Event ID Objects TCA Miss Dist (km) Collision Risk Probability Collision Risk Index (CRI) Action
CDM_260911-204103-609006-334723
2026-09-11T
20:41:13+0000
1.374 km
极远距离
8.843031E-6 低风险 0.54
CDM_260910-211300-238906-334727
OV3-3 (2389)
2026-09-10T
21:13:45+0000
2.776 km
极远距离
1.521081E-6 低风险 0.39
Miss Distance Evolution Trend with All Objects
Collision Probability Evolution Trend with All Objects